Location: New Mesquite
(33.1168°N, 96.4336°W)
Time: 17:06:23
(UTC+00:00)

Meteor 1-27 Rocket - Pass Details

Date: 12 July 2022
Orbit: 829 x 911 km, 81.3° (Epoch: 18 August)

Event Time Altitude Azimuth Distance (km) Brightness Sun altitude
Rises 08:22:07 0° 346° (NNW) 3,391 7.5 -28.9°
Reaches altitude 10° 08:24:35 10° 341° (NNW) 2,446 6.6 -28.7°
Enters shadow 08:28:48 45° 305° (NW) 1,124 4.3 -28.2°
